2024-169D

Last updated on Fri Oct 04 2024 00:02:04 GMT+0000 (Coordinated Universal Time)

1 61192U 24169D 24277.54037435 .00020793 00000+0 12743-2 0 9993 2 61192 97.5875 2.8116 0012634 227.2891 132.7275 15.10124412 2018
UTC large
Height (km)
Speed (km/s)
/
Latitude / Longitude
Inclination (degrees)
Orbital Period (minutes)
Azimuth
Elevation
Range (km)
Doppler Factor

Next 0 passes for location: London (51.5072 / 0.1276)

Sorry there are no passes over London.